Location: ?????????
(41.2393°N, 22.9479°E)
Time: 05:06:00
(UTC+00:00)

BlueWalker 3 - Pass Details

Date: 17 November 2025
Orbit: 455 x 462 km, 53.2° (Epoch: 09 December)

Event Time Altitude Azimuth Distance (km) Brightness Sun altitude
Rises 17:10:32 0° 218° (SW) 2,473 6.1 -23.1°
Reaches altitude 10° 17:12:42 10° 213° (SSW) 1,603 5.0 -23.5°
Enters shadow 17:14:39 28° 198° (SSW) 884 3.3 -23.9°
